Location: Chervonnoye
(48.6000°N, 34.4000°E)
Time: 16:57:41
(UTC+00:00)

deb Kosmos-374 - Visible Passes

Search period start: 30 November 2023 00:00
Search period end: 10 December 2023 00:00
Orbit: 512 x 1622 km, 62.9° (Epoch: 29 November)

Date Brightness Start Highest point End Pass type
(mag) Time Alt. Az. Time Alt. Az. Time Alt. Az.
30 Nov ? 03:50:10 10° SSW 03:55:59 46° SE 04:00:29 10° NE visible
01 Dec ? 02:55:09 10° S 03:00:01 24° ESE 03:04:00 10° ENE visible
02 Dec ? 02:01:48 10° SE 02:04:09 12° ESE 02:06:19 10° E visible
02 Dec ? 03:47:39 10° SSW 03:53:39 69° SE 03:58:15 10° NE visible
03 Dec ? 02:52:01 10° S 02:57:36 36° SE 03:02:01 10° ENE visible
04 Dec ? 01:57:23 10° SSE 02:01:37 20° ESE 02:05:14 10° ENE visible
04 Dec ? 03:45:21 10° SW 03:51:17 81° NW 03:55:49 10° NE visible
05 Dec ? 02:49:13 10° SSW 02:55:10 55° SE 02:59:44 10° NE visible
05 Dec ? 04:40:21 10° W 04:45:10 32° NW 04:49:06 10° NNE visible
06 Dec ? 01:55:19 16° S 01:59:05 29° ESE 02:03:18 10° ENE visible
06 Dec ? 03:43:14 10° WSW 03:48:52 55° NW 03:53:14 10° NE visible
07 Dec ? 01:03:09 15° ESE 01:03:09 15° ESE 01:06:03 10° E visible
07 Dec ? 02:49:52 31° SW 02:52:39 82° SE 02:57:14 10° NE visible
07 Dec ? 04:38:41 10° W 04:42:52 24° NNW 04:46:24 10° NNE visible
08 Dec ? 01:56:47 43° ESE 01:56:47 43° ESE 02:01:00 10° NE visible
08 Dec ? 03:43:27 21° W 03:46:24 39° NW 03:50:32 10° NNE visible
09 Dec ? 01:03:16 15° ENE 01:03:16 15° ENE 01:04:19 10° ENE visible
09 Dec ? 02:49:54 68° WNW 02:50:05 69° NW 02:54:35 10° NE visible
09 Dec ? 04:37:05 10° WNW 04:40:33 19° NNW 04:43:37 10° NNE visible
